Device Time, Air Fuel Ratio(Measured)(:1),Barometric pressure (from vehicle)(psi),Engine Load(Absolute)(%),Engine RPM(rpm),Fuel Rail Pressure(psi),Intake Air Temperature(°F),Throttle Position(Manifold)(%),Timing Advance(°),Turbo Boost & Vacuum Gauge(psi)
17-Dec-2018 11:46:21.323,13.33533382,14.35873604,30.58823586,2925.5,758.54736328,86,12.54901981,3,-7.83203793
17-Dec-2018 11:46:21.506,13.65474224,14.35873604,30.58823586,2925.5,758.54736328,86,12.54901981,3,-7.83203793
17-Dec-2018 11:46:21.706,13.65474224,14.35873604,30.58823586,2937,758.54736328,86,12.54901981,3,-7.68700027
17-Dec-2018 11:46:21.907,14.37296486,14.35873604,53.72549057,2937,778.85266113,86,12.54901981,3,-7.68700027
17-Dec-2018 11:46:22.112,14.37296486,14.35873604,53.72549057,2974.5,778.85266113,86,12.54901981,3,3.77098083
17-Dec-2018 11:46:22.311,14.37296486,13.92362309,53.72549057,2974.5,1480.83532715,86,55.29411697,14,3.77098083
17-Dec-2018 11:46:22.509,13.07334614,13.92362309,174.5098114,2974.5,1480.83532715,86,55.29411697,14,3.77098083
17-Dec-2018 11:46:22.706,13.07334614,13.92362309,174.5098114,3291,1480.83532715,86,55.29411697,14,11.60301876
17-Dec-2018 11:46:22.915,12.50585651,13.92362309,184.70588684,3291,2309.00073242,86,84.31372833,9.5,11.60301876
17-Dec-2018 11:46:23.105,12.50585651,13.92362309,184.70588684,3291,2309.00073242,86,84.31372833,9.5,11.60301876
17-Dec-2018 11:46:23.305,12.38024616,13.92362309,184.70588684,3487.5,2729.61010742,86,84.31372833,7.5,13.63354778
17-Dec-2018 11:46:23.505,12.38024616,13.92362309,198.8235321,3487.5,2729.61010742,86,84.31372833,7.5,13.63354778
17-Dec-2018 11:46:23.716,12.38024616,13.92362309,198.8235321,3839,2729.61010742,86,84.31372833,9,14.9388876
17-Dec-2018 11:46:23.906,12.17209148,13.92362309,204.70588684,3839,2813.73217773,86,84.31372833,9,14.9388876
17-Dec-2018 11:46:24.106,12.17209148,13.92362309,204.70588684,3839,2813.73217773,86,84.31372833,9,14.9388876
17-Dec-2018 11:46:24.305,12.17209148,13.92362309,204.70588684,4065.5,2834.03735352,86,84.31372833,9.5,16.67934036
17-Dec-2018 11:46:24.507,12.23669052,13.92362309,208.23529053,4065.5,2834.03735352,86,84.31372833,9.5,16.67934036
17-Dec-2018 11:46:24.707,12.23669052,13.92362309,208.23529053,4065.5,2834.03735352,86,84.31372833,9.5,18.12971878
17-Dec-2018 11:46:24.906,12.03167725,13.92362309,207.84313965,4443,2854.34277344,84.19999695,83.92156982,10.5,18.12971878
17-Dec-2018 11:46:25.106,12.03167725,13.92362309,207.84313965,4443,2854.34277344,84.19999695,83.92156982,10.5,18.12971878
17-Dec-2018 11:46:25.305,12.03167725,13.92362309,207.84313965,4751,2873.19750977,84.19999695,84.31372833,8,18.27475739
17-Dec-2018 11:46:25.506,12.04244328,13.92362309,212.94117737,4751,2873.19750977,84.19999695,84.31372833,8,18.27475739
17-Dec-2018 11:46:25.706,12.04244328,13.92362309,212.94117737,5003,2873.19750977,84.19999695,84.31372833,8,18.56483078
17-Dec-2018 11:46:25.906,12.07878017,13.92362309,216.47058105,5003,2857.2434082,84.19999695,83.92156982,9,18.56483078
17-Dec-2018 11:46:26.106,12.07878017,13.92362309,216.47058105,5003,2857.2434082,84.19999695,83.92156982,9,18.56483078
17-Dec-2018 11:46:26.305,12.06083679,13.92362309,220.78431702,5194.5,2855.79296875,84.19999695,83.92156982,9,18.99994278
17-Dec-2018 11:46:26.506,12.06083679,13.92362309,220.78431702,5194.5,2855.79296875,84.19999695,83.92156982,9,18.99994278
17-Dec-2018 11:46:26.711,12.06083679,13.92362309,220.78431702,5479.5,2876.09838867,84.19999695,83.92156982,9.5,20.0152092
17-Dec-2018 11:46:26.905,12.07160282,13.92362309,227.45097351,5479.5,2876.09838867,84.19999695,83.92156982,9.5,20.0152092
17-Dec-2018 11:46:27.106,12.07160282,13.92362309,227.45097351,5479.5,2876.09838867,84.19999695,83.92156982,9.5,20.0152092
17-Dec-2018 11:46:27.304,12.07160282,13.92362309,227.45097351,5823,2876.09838867,84.19999695,84.31372833,9.5,18.99994278
17-Dec-2018 11:46:27.506,12.06442547,14.06866074,226.27450562,5823,2892.05249023,84.19999695,84.31372833,9.5,18.99994278
17-Dec-2018 11:46:27.705,12.06442547,14.06866074,226.27450562,5823,2892.05249023,84.19999695,84.31372833,9.5,18.99994278
17-Dec-2018 11:46:27.906,12.06442547,14.06866074,226.27450562,6085,2886.25097656,84.19999695,84.31372833,10.5,18.27475357
17-Dec-2018 11:46:28.105,12.12184715,14.06866074,226.66667175,6085,2886.25097656,84.19999695,84.31372833,10.5,18.27475357
17-Dec-2018 11:46:28.305,12.12184715,14.06866074,226.66667175,6303.5,2886.25097656,84.19999695,84.31372833,10.5,17.54956627
17-Dec-2018 11:46:28.507,12.05006981,14.06866074,223.92156982,6303.5,2880.44946289,82.40000153,84.31372833,10.5,17.54956627
17-Dec-2018 11:46:28.716,12.05006981,14.06866074,223.92156982,6303.5,2880.44946289,82.40000153,84.31372833,10.5,17.54956627
17-Dec-2018 11:46:28.908,12.05006981,14.06866074,223.92156982,6540,2880.44946289,82.40000153,84.31372833,13.5,16.82437706
17-Dec-2018 11:46:29.105,11.87017822,13.92362309,218.03921509,6540,2878.99902344,82.40000153,84.31372833,13.5,16.82437706
17-Dec-2018 11:46:29.305,11.87017822,13.92362309,218.03921509,6540,2878.99902344,82.40000153,84.31372833,13.5,16.09918976
17-Dec-2018 11:46:29.507,11.47540283,13.92362309,213.33332825,6714,2868.84643555,82.40000153,84.31372833,14,16.09918976
17-Dec-2018 11:46:29.705,11.47540283,13.92362309,213.33332825,6868,2868.84643555,82.40000153,84.31372833,13.5,15.9541502
17-Dec-2018 11:46:29.906,11.38209152,13.92362309,212.15686035,6868,2842.73974609,82.40000153,83.92156982,13.5,15.9541502
17-Dec-2018 11:46:30.105,11.38209152,13.92362309,212.15686035,7180.5,2842.73974609,82.40000153,83.92156982,13.5,-10.87783051
17-Dec-2018 11:46:30.306,11.65484619,13.92362309,17.64705849,7180.5,2899.30444336,82.40000153,15.29411793,10.5,-10.87783051
17-Dec-2018 11:46:30.506,11.65484619,13.92362309,17.64705849,7180.5,2899.30444336,82.40000153,15.29411793,10.5,-10.87783051
17-Dec-2018 11:46:30.710,11.65484619,13.92362309,17.64705849,5306,2899.30444336,82.40000153,15.29411793,5,17.69460297
17-Dec-2018 11:46:30.906,10.61721516,13.92362309,221.1764679,5306,2749.91552734,82.40000153,84.31372833,5,17.69460297
17-Dec-2018 11:46:31.111,10.61721516,13.92362309,221.1764679,5306,2749.91552734,82.40000153,84.31372833,5,17.69460297
17-Dec-2018 11:46:31.307,10.54902649,13.92362309,218.03921509,5380,2802.12915039,82.40000153,84.31372833,12.5,18.85490799
17-Dec-2018 11:46:31.508,10.54902649,13.92362309,218.03921509,5380,2802.12915039,82.40000153,84.31372833,12.5,18.85490799
17-Dec-2018 11:46:31.706,11.43233585,13.92362309,218.03921509,5532,2892.05249023,82.40000153,84.31372833,12.5,18.85490799
17-Dec-2018 11:46:31.905,11.43233585,13.92362309,220.39215088,5532,2892.05249023,82.40000153,84.31372833,12.5,18.85490799
17-Dec-2018 11:46:32.106,11.43233585,13.92362309,220.39215088,5532,2892.05249023,82.40000153,84.31372833,12.5,18.85490799
17-Dec-2018 11:46:32.304,11.34979248,13.92362309,219.60784912,5656,2887.70141602,82.40000153,83.92156982,12.5,18.56483078
17-Dec-2018 11:46:32.506,11.34979248,13.92362309,219.60784912,5656,2887.70141602,82.40000153,83.92156982,12.5,18.56483078
17-Dec-2018 11:46:32.705,11.34979248,13.92362309,219.60784912,5756,2887.70141602,82.40000153,84.31372833,12.5,18.12971878
17-Dec-2018 11:46:32.905,11.49693584,13.92362309,216.47058105,5756,2896.40356445,82.40000153,84.31372833,12.5,18.12971878
17-Dec-2018 11:46:33.106,11.49693584,13.92362309,216.47058105,5902,2896.40356445,82.40000153,84.31372833,12.5,17.54956436
17-Dec-2018 11:46:33.307,11.35338116,13.92362309,214.90196228,5902,2899.30444336,82.40000153,84.31372833,12.5,17.54956436
17-Dec-2018 11:46:33.506,11.35338116,13.92362309,214.90196228,5902,2899.30444336,82.40000153,84.31372833,12.5,17.54956436
17-Dec-2018 11:46:33.705,11.40003586,13.92362309,213.72549438,6044.5,2899.30444336,82.40000153,83.92156982,13.5,17.25949097
17-Dec-2018 11:46:33.905,11.40003586,13.92362309,213.72549438,6044.5,2899.30444336,82.40000153,83.92156982,13.5,17.25949097
17-Dec-2018 11:46:34.105,11.40003586,13.92362309,213.72549438,6123.5,2886.25097656,82.40000153,84.31372833,13.5,16.96941376
17-Dec-2018 11:46:34.305,11.48258018,13.92362309,212.54902649,6123.5,2886.25097656,82.40000153,84.31372833,13.5,16.96941376
17-Dec-2018 11:46:34.506,11.48258018,13.92362309,212.54902649,6208.5,2886.25097656,82.40000153,84.31372833,13.5,16.53430176
17-Dec-2018 11:46:34.705,11.44310284,13.92362309,211.37254333,6208.5,2899.30444336,82.40000153,84.31372833,13.5,16.53430176
17-Dec-2018 11:46:34.914,11.44310284,13.92362309,211.37254333,6208.5,2899.30444336,82.40000153,84.31372833,13.5,16.53430176
17-Dec-2018 11:46:35.104,11.44310284,13.92362309,211.37254333,6343.5,2899.30444336,82.40000153,84.31372833,13.5,16.09918976
17-Dec-2018 11:46:35.305,11.58665752,13.92362309,207.84313965,6343.5,2860.14428711,82.40000153,84.31372833,13.5,16.09918976
17-Dec-2018 11:46:35.505,11.58665752,13.92362309,207.84313965,6343.5,2860.14428711,82.40000153,84.31372833,13.5,16.09918976
17-Dec-2018 11:46:35.710,11.48616886,13.92362309,205.4901886,6404.5,2876.09838867,84.19999695,84.31372833,13.5,15.6640749
17-Dec-2018 11:46:35.905,11.48616886,13.92362309,205.4901886,6404.5,2876.09838867,84.19999695,84.31372833,13.5,15.6640749
17-Dec-2018 11:46:36.105,11.48616886,13.92362309,203.92156982,6494.5,2883.3503418,84.19999695,84.31372833,15.5,15.5190382
17-Dec-2018 11:46:36.305,11.48616886,13.92362309,203.92156982,6494.5,2883.3503418,84.19999695,84.31372833,15.5,15.5190382
17-Dec-2018 11:46:36.505,11.48616886,13.92362309,203.92156982,6583,2883.3503418,84.19999695,83.92156982,15.5,14.79384899
17-Dec-2018 11:46:36.704,11.5902462,13.92362309,200.78431702,6583,2887.70141602,84.19999695,83.92156982,15.5,14.79384899
17-Dec-2018 11:46:36.905,11.5902462,13.92362309,200.78431702,6583,2887.70141602,84.19999695,83.92156982,15.5,14.79384899
17-Dec-2018 11:46:37.104,11.94554424,13.92362309,200.78431702,6624,2899.30444336,86,14.90196133,12.5,-9.28241539
17-Dec-2018 11:46:37.305,11.94554424,13.92362309,15.68627453,6624,2899.30444336,86,14.90196133,12.5,-9.28241539
17-Dec-2018 11:46:37.505,11.94554424,13.92362309,15.68627453,6396.5,2899.30444336,86,18.03921509,10.5,-10.44271755
17-Dec-2018 11:46:37.704,12.34076786,13.92362309,16.47058868,6396.5,2834.03735352,86,18.03921509,10.5,-10.44271755
17-Dec-2018 11:46:37.904,12.34076786,13.92362309,16.47058868,6004.5,2834.03735352,86,18.03921509,9,-9.86256599
17-Dec-2018 11:46:38.131,29.39955139,13.92362309,24.70588303,6004.5,2799.22827148,86,18.03921509,9,-9.86256599
17-Dec-2018 11:46:38.306,29.39955139,13.92362309,24.70588303,6004.5,2799.22827148,86,18.03921509,9,-9.86256599
17-Dec-2018 11:46:38.506,29.39955139,13.92362309,24.70588303,5472.5,2823.88476562,86,19.2156868,8,-8.70226479
17-Dec-2018 11:46:38.707,29.39955139,13.92362309,25.49019623,5472.5,2823.88476562,86,19.2156868,8,-8.70226479
17-Dec-2018 11:46:38.907,29.39955139,13.92362309,25.49019623,4716,2823.88476562,86,19.2156868,8,-8.26715088
17-Dec-2018 11:46:39.105,29.39955139,13.92362309,25.09803963,4716,2844.18994141,86,18.4313736,6,-8.26715088
17-Dec-2018 11:46:39.304,29.39955139,13.92362309,25.09803963,4716,2844.18994141,86,18.4313736,6,-8.26715088
17-Dec-2018 11:46:39.505,29.39955139,13.92362309,25.09803963,4039,2844.18994141,86,17.64705849,4.5,-8.26715088
17-Dec-2018 11:46:39.705,29.39955139,13.92362309,24.70588303,4039,2858.69384766,86,17.64705849,4.5,-8.26715088
17-Dec-2018 11:46:39.905,29.39955139,13.92362309,24.70588303,4039,2858.69384766,86,17.64705849,4.5,-8.70226479
17-Dec-2018 11:46:40.105,29.39955139,13.92362309,23.13725471,3638,2871.74731445,86,17.25490189,7.5,-8.70226479
17-Dec-2018 11:46:40.306,29.39955139,13.92362309,23.13725471,3638,2871.74731445,86,17.25490189,7.5,-8.70226479
17-Dec-2018 11:46:40.505,29.39955139,13.92362309,23.13725471,3233,2881.89990234,86,16.47058868,8,-8.70226479
17-Dec-2018 11:46:40.705,29.39955139,13.92362309,23.92156792,3233,2881.89990234,86,16.47058868,8,-8.70226479
17-Dec-2018 11:46:40.907,29.39955139,13.92362309,23.92156792,3233,2881.89990234,86,16.47058868,8,-8.70226479
17-Dec-2018 11:46:41.106,29.39955139,13.92362309,23.92156792,2499.5,2881.89990234,86,16.47058868,14,-8.41218948
17-Dec-2018 11:46:41.305,29.39955139,13.92362309,24.70588303,2499.5,2892.05249023,86,15.29411793,14,-8.41218948
17-Dec-2018 11:46:41.505,29.39955139,13.92362309,24.70588303,2499.5,2892.05249023,86,15.29411793,14,-8.41218948
17-Dec-2018 11:46:41.705,29.39955139,13.92362309,24.31372643,2163,2896.40356445,86,14.50980377,3,-8.55722618
17-Dec-2018 11:46:41.905,29.39955139,13.92362309,24.31372643,2163,2896.40356445,86,14.50980377,3,-8.55722618
17-Dec-2018 11:46:42.105,29.39955139,13.92362309,24.31372643,1681,2896.40356445,86,13.72549057,-2.5,-8.55722618
17-Dec-2018 11:46:42.308,29.39955139,13.92362309,21.96078491,1681,2899.30444336,86,13.72549057,-2.5,-8.55722618
17-Dec-2018 11:46:42.505,29.39955139,13.92362309,21.96078491,1681,2899.30444336,86,13.72549057,-2.5,-8.55722618
17-Dec-2018 11:46:42.704,29.39955139,13.92362309,21.96078491,1331,2899.30444336,86,13.72549057,-5.5,-9.7175293
17-Dec-2018 11:46:42.907,29.39955139,13.92362309,16.47058868,1331,2849.99145508,86,11.37254906,-5.5,-9.7175293
17-Dec-2018 11:46:43.105,29.39955139,13.92362309,16.47058868,1331,2849.99145508,86,11.37254906,-5.5,-9.7175293
17-Dec-2018 11:46:43.305,11.87735558,13.92362309,18.43137169,1106.5,2805.02978516,86,12.15686321,2,-9.42745304
17-Dec-2018 11:46:43.505,11.87735558,13.92362309,18.43137169,1106.5,2805.02978516,86,12.15686321,2,-9.42745304
17-Dec-2018 11:46:43.705,10.25473976,13.92362309,20.3921566,998.5,2736.86206055,86,12.15686321,1.5,-9.13737774
17-Dec-2018 11:46:43.904,10.25473976,13.92362309,20.3921566,998.5,2736.86206055,86,12.15686321,1.5,-9.13737774
17-Dec-2018 11:46:44.105,10.25473976,13.92362309,20.3921566,981.5,2736.86206055,86,12.15686321,0.5,-8.99234009
17-Dec-2018 11:46:44.306,10.41623878,13.92362309,20,981.5,2655.64086914,86,11.76470566,0.5,-8.99234009
17-Dec-2018 11:46:44.507,10.41623878,13.92362309,20,981.5,2655.64086914,86,11.76470566,0.5,-8.99234009
17-Dec-2018 11:46:44.713,10.41623878,13.92362309,20,1003,2655.64086914,86,11.76470566,-2.5,-8.99234009
17-Dec-2018 11:46:44.903,10.62439251,13.92362309,20,1003,2594.72509766,86,11.76470566,-2.5,-8.99234009
17-Dec-2018 11:46:45.108,10.62439251,13.92362309,20,1003,2594.72509766,86,11.76470566,-2.5,-8.99234009
17-Dec-2018 11:46:45.309,11.04429054,13.92362309,19.6078434,1009.5,2536.70996094,86,11.76470566,-4,-9.13737774
17-Dec-2018 11:46:45.505,11.04429054,13.92362309,19.6078434,1009.5,2536.70996094,86,11.76470566,-4,-9.13737774
17-Dec-2018 11:46:45.704,11.04429054,13.92362309,19.6078434,995.5,2536.70996094,86,11.76470566,0,-9.13737774
17-Dec-2018 11:46:45.904,12.46637917,13.92362309,19.2156868,995.5,2488.84765625,86,11.76470566,0,-9.13737774
Device Time, Air Fuel Ratio(Measured)(:1),Barometric pressure (from vehicle)(psi),Engine Load(Absolute)(%),Engine RPM(rpm),Fuel Rail Pressure(psi),Intake Air Temperature(°F),Throttle Position(Manifold)(%),Timing Advance(°),Turbo Boost & Vacuum Gauge(psi)
17-Dec-2018 11:51:25.547,13.84136295,13.92362309,18.43137169,1002,749.84509277,87.80000305,11.76470566,1.5,-9.42745304
17-Dec-2018 11:51:25.749,13.73010826,13.92362309,18.03921509,1002,749.84509277,87.80000305,11.76470566,1.5,-9.42745304
17-Dec-2018 11:51:25.946,13.73010826,13.92362309,18.03921509,1002,749.84509277,87.80000305,11.76470566,1.5,-9.42745304
17-Dec-2018 11:51:26.147,13.73010826,13.92362309,18.03921509,1496,749.84509277,87.80000305,36.07843018,20,-0.43511391
17-Dec-2018 11:51:26.346,12.12184715,13.92362309,91.37255096,1496,1153.05004883,87.80000305,36.07843018,20,-0.43511391
17-Dec-2018 11:51:26.546,12.12184715,13.92362309,91.37255096,1496,1153.05004883,87.80000305,36.07843018,20,-0.43511391
17-Dec-2018 11:51:26.746,12.12184715,13.92362309,91.37255096,1933,1153.05004883,87.80000305,33.33333206,15,2.46564198
17-Dec-2018 11:51:26.947,15.24191952,13.92362309,99.60784149,1933,1649.07910156,87.80000305,33.33333206,15,2.46564198
17-Dec-2018 11:51:27.145,14.33348656,13.92362309,99.60784149,2075,1781.06347656,87.80000305,27.05882454,16.5,3.04579258
17-Dec-2018 11:51:27.349,14.33348656,13.92362309,105.09803772,2075,1781.06347656,87.80000305,27.05882454,16.5,3.04579258
17-Dec-2018 11:51:27.553,14.33348656,13.92362309,105.09803772,2075,1781.06347656,87.80000305,27.05882454,16.5,9.71752834
17-Dec-2018 11:51:27.747,13.7552309,13.92362309,165.88235474,2955.5,2568.6184082,87.80000305,84.70588684,7.5,9.71752834
17-Dec-2018 11:51:27.952,13.7552309,13.92362309,165.88235474,2955.5,2568.6184082,87.80000305,84.70588684,7.5,9.71752834
17-Dec-2018 11:51:28.166,13.7552309,13.92362309,165.88235474,4865,2752.81616211,87.80000305,83.92156982,10.5,16.53430176
17-Dec-2018 11:51:28.353,11.75892353,13.92362309,203.92156982,4865,2752.81616211,87.80000305,83.92156982,10.5,16.53430176
17-Dec-2018 11:51:28.552,11.75892353,13.92362309,203.92156982,6209.5,2752.81616211,87.80000305,83.92156982,10.5,15.5190382
17-Dec-2018 11:51:28.750,12.22233582,13.92362309,205.88235474,6209.5,2806.48022461,87.80000305,84.31372833,12.5,15.5190382
17-Dec-2018 11:51:28.952,12.22233582,13.92362309,205.88235474,6209.5,2806.48022461,87.80000305,84.31372833,12.5,15.5190382
17-Dec-2018 11:51:29.156,29.39955139,13.92362309,26.66666603,6586,2831.13671875,87.80000305,16.86274529,8,-8.12211418
17-Dec-2018 11:51:29.348,29.39955139,13.92362309,26.66666603,6586,2831.13671875,87.80000305,16.86274529,8,-8.12211418
17-Dec-2018 11:51:29.547,29.39955139,13.92362309,26.66666603,4512,2831.13671875,87.80000305,16.86274529,12.5,8.26714993
17-Dec-2018 11:51:29.746,12.54174423,13.92362309,193.72549438,4512,2729.61010742,87.80000305,80,12.5,8.26714993
17-Dec-2018 11:51:29.946,12.54174423,13.92362309,193.72549438,4422.5,2729.61010742,87.80000305,80,12.5,18.99994278
17-Dec-2018 11:51:30.146,12.54174423,13.92362309,193.72549438,4422.5,2754.26660156,86,84.31372833,6,18.99994278
17-Dec-2018 11:51:30.348,11.74815655,13.92362309,212.54902649,4422.5,2754.26660156,86,84.31372833,6,18.99994278
17-Dec-2018 11:51:30.550,11.74815655,13.92362309,212.54902649,4422.5,2754.26660156,86,84.31372833,6,18.99994278
17-Dec-2018 11:51:30.748,11.98861027,13.92362309,218.8235321,5333,2831.13671875,86,83.92156982,12,17.69460297
17-Dec-2018 11:51:30.947,11.98861027,13.92362309,218.8235321,5333,2831.13671875,86,83.92156982,12,17.69460297
17-Dec-2018 11:51:31.147,11.98861027,13.92362309,218.8235321,5851,2831.13671875,86,83.92156982,12.5,17.98468018
17-Dec-2018 11:51:31.354,11.99578857,13.92362309,220,5851,2852.89233398,86,83.92156982,12.5,17.98468018
17-Dec-2018 11:51:31.551,11.99578857,13.92362309,220,6288,2852.89233398,86,84.31372833,13.5,17.40452957
17-Dec-2018 11:51:31.747,12.12543678,13.92362309,217.25489807,6288,2835.48779297,86,84.31372833,13.5,17.40452957
17-Dec-2018 11:51:31.949,12.12543678,13.92362309,217.25489807,6288,2835.48779297,86,84.31372833,13.5,17.40452957
17-Dec-2018 11:51:32.149,12.12543678,13.92362309,217.25489807,6899.5,2835.48779297,86,84.31372833,13.5,13.48850918
17-Dec-2018 11:51:32.346,29.39955139,13.92362309,31.37254906,6899.5,2861.59448242,86,16.07843208,9,13.48850918
17-Dec-2018 11:51:32.549,29.39955139,13.92362309,31.37254906,6015.5,2861.59448242,86,16.07843208,9,3.91601849
17-Dec-2018 11:51:32.749,12.30129147,13.92362309,149.80392456,6015.5,2832.58691406,86,81.96078491,3.5,3.91601849
17-Dec-2018 11:51:32.946,12.30129147,13.92362309,149.80392456,6015.5,2832.58691406,86,81.96078491,3.5,3.91601849
17-Dec-2018 11:51:33.147,11.72303486,13.92362309,149.80392456,4837,2762.96899414,86,84.31372833,6,18.27475739
17-Dec-2018 11:51:33.347,11.72303486,13.92362309,210.58824158,4837,2762.96899414,86,84.31372833,6,18.27475739
17-Dec-2018 11:51:33.546,11.72303486,13.92362309,210.58824158,4837,2762.96899414,86,84.31372833,6,18.27475739
17-Dec-2018 11:51:33.749,11.72303486,13.92362309,210.58824158,5166,2842.73974609,86,84.31372833,11,17.69460297
17-Dec-2018 11:51:33.946,12.19003582,13.92362309,211.76470947,5166,2842.73974609,86,84.31372833,11,17.69460297
17-Dec-2018 11:51:34.150,12.19003582,13.92362309,211.76470947,5366.5,2842.73974609,86,84.31372833,11,19.14498138
17-Dec-2018 11:51:34.348,12.20439148,13.92362309,221.56863403,5366.5,2839.83886719,86,83.92156982,12,19.14498138
17-Dec-2018 11:51:34.547,12.20439148,13.92362309,221.56863403,5597,2839.83886719,86,83.92156982,12,19.14498138
17-Dec-2018 11:51:34.746,12.16491413,13.92362309,226.27450562,5597,2855.79296875,86,84.31372833,12,19.14498138
17-Dec-2018 11:51:34.946,12.16491413,13.92362309,226.27450562,5597,2855.79296875,86,84.31372833,12,19.14498138
17-Dec-2018 11:51:35.146,12.16491413,13.92362309,226.27450562,5913.5,2855.79296875,86,84.31372833,12,18.12971878
17-Dec-2018 11:51:35.346,12.02449894,13.92362309,221.96078491,5913.5,2855.79296875,86,84.31372833,12,18.12971878
17-Dec-2018 11:51:35.548,12.02449894,13.92362309,221.96078491,5913.5,2855.79296875,86,84.31372833,12,18.12971878
17-Dec-2018 11:51:35.748,12.02449894,13.92362309,221.96078491,6189,2855.79296875,84.19999695,84.31372833,12.5,17.54956436
17-Dec-2018 11:51:35.946,12.07878017,13.92362309,222.74510193,6189,2864.49536133,84.19999695,83.92156982,12.5,17.54956436
17-Dec-2018 11:51:36.151,12.07878017,13.92362309,222.74510193,6384,2864.49536133,84.19999695,83.92156982,12.5,16.96941376
17-Dec-2018 11:51:36.390,12.10749149,13.92362309,218.8235321,6384,2864.49536133,84.19999695,83.92156982,12.5,16.96941376
17-Dec-2018 11:51:36.548,12.10749149,13.92362309,218.8235321,6384,2864.49536133,84.19999695,83.92156982,12.5,16.96941376
17-Dec-2018 11:51:36.747,12.10749149,13.92362309,218.8235321,6656,2864.49536133,84.19999695,83.92156982,12.5,16.24422836
17-Dec-2018 11:51:36.947,11.73021317,13.92362309,212.94117737,6656,2861.59448242,84.19999695,84.31372833,15,16.24422836
17-Dec-2018 11:51:37.147,11.73021317,13.92362309,212.94117737,6656,2861.59448242,84.19999695,84.31372833,15,16.24422836
17-Dec-2018 11:51:37.346,11.73021317,13.92362309,212.94117737,6893,2861.59448242,84.19999695,84.31372833,15,15.6640749
17-Dec-2018 11:51:37.548,11.51488018,13.92362309,205.88235474,6893,2855.79296875,84.19999695,84.31372833,15,15.6640749
17-Dec-2018 11:51:37.747,11.51488018,13.92362309,205.88235474,6893,2855.79296875,84.19999695,84.31372833,15,15.6640749
17-Dec-2018 11:51:37.946,11.51488018,13.92362309,205.88235474,6962,2855.79296875,84.19999695,16.07843208,11,-10.87783051
17-Dec-2018 11:51:38.146,11.26365948,13.92362309,22.35294151,6962,2887.70141602,84.19999695,16.07843208,11,-10.87783051
17-Dec-2018 11:51:38.346,11.26365948,13.92362309,22.35294151,6962,2887.70141602,84.19999695,16.07843208,11,-10.87783051
17-Dec-2018 11:51:38.546,29.39955139,13.92362309,24.70588303,6018,2899.30444336,84.19999695,19.6078434,6,-9.13737774
17-Dec-2018 11:51:38.747,29.39955139,13.92362309,24.70588303,6018,2899.30444336,84.19999695,19.6078434,6,-9.13737774
17-Dec-2018 11:51:38.948,29.39955139,13.92362309,25.09803963,5440.5,2899.30444336,84.19999695,19.2156868,8,-8.70226479
17-Dec-2018 11:51:39.146,29.39955139,13.92362309,25.09803963,5440.5,2899.30444336,84.19999695,19.2156868,8,-8.70226479
17-Dec-2018 11:51:39.346,29.39955139,13.92362309,25.09803963,4927.5,2899.30444336,84.19999695,18.8235302,6.5,-8.41218948
17-Dec-2018 11:51:39.547,29.39955139,13.92362309,25.49019623,4927.5,2899.30444336,84.19999695,18.8235302,6.5,-8.41218948
17-Dec-2018 11:51:39.746,29.39955139,13.92362309,25.49019623,4927.5,2899.30444336,84.19999695,18.8235302,6.5,-8.41218948
17-Dec-2018 11:51:39.947,29.39955139,13.92362309,24.70588303,4240,2899.30444336,84.19999695,18.03921509,3,-8.26715088
17-Dec-2018 11:51:40.149,29.39955139,13.92362309,24.70588303,4240,2899.30444336,84.19999695,18.03921509,3,-8.26715088
17-Dec-2018 11:51:40.348,29.39955139,13.92362309,24.70588303,3820.5,2899.30444336,84.19999695,17.25490189,2,-8.41218948
17-Dec-2018 11:51:40.550,29.39955139,13.92362309,24.31372643,3820.5,2899.30444336,84.19999695,17.25490189,2,-8.41218948
17-Dec-2018 11:51:40.754,29.39955139,13.92362309,24.31372643,3424.5,2899.30444336,84.19999695,16.86274529,3,-8.70226479
17-Dec-2018 11:51:40.954,29.39955139,13.92362309,23.52941132,3424.5,2899.30444336,84.19999695,16.86274529,3,-8.70226479